This is the latest recevied weather packets stored in our database for station/object KB3VSP. If no packets are shown the sender has not sent any weather packets the latest 10 day(s).
| Time | Temp. | Humidity | Pressure | Rain* | Wind** | Luminosity | Snow |
|---|---|---|---|---|---|---|---|
| 1778026781 | 20.56° C | 59% | 1007.9 hPa | 0 mm | - | 0 W/m² | - |
| 1778026478 | 20.56° C | 59% | 1007.7 hPa | 0 mm | - | 0 W/m² | - |
| 1778026175 | 20.56° C | 60% | 1008.2 hPa | 0 mm | - | 0 W/m² | - |
| 1778025873 | 20.56° C | 59% | 1007.9 hPa | 0 mm | - | 3 W/m² | - |
| 1778025570 | 20.56° C | 58% | 1008.2 hPa | 0 mm | - | 3 W/m² | - |
| 1778025268 | 20.56° C | 60% | 1008 hPa | 0 mm | - | 1 W/m² | - |
| 1778024964 | 20.56° C | 61% | 1007.8 hPa | 0 mm | - | 3 W/m² | - |
| 1778024662 | 20.56° C | 60% | 1007.9 hPa | 0 mm | - | 6 W/m² | - |
| 1778024358 | 20.56° C | 59% | 1008 hPa | 0 mm | - | 9 W/m² | - |
| 1778024056 | 20.56° C | 59% | 1008 hPa | 0 mm | - | 9 W/m² | - |
| 1778023753 | 20.56° C | 60% | 1007.7 hPa | 0 mm | - | 11 W/m² | - |
| 1778023451 | 20.56° C | 59% | 1007.7 hPa | 0 mm | - | 19 W/m² | - |
| 1778023148 | 20.56° C | 59% | 1007.8 hPa | 0 mm | - | 18 W/m² | - |
| 1778022845 | 20.56° C | 59% | 1007.8 hPa | 0 mm | - | 13 W/m² | - |
| 1778022543 | 21.11° C | 59% | 1007.9 hPa | 0 mm | - | 10 W/m² | - |
| 1778022241 | 21.11° C | 59% | 1007.8 hPa | 0 mm | - | 15 W/m² | - |
| 1778021937 | 21.11° C | 59% | 1007.9 hPa | 0 mm | - | 35 W/m² | - |
| 1778021634 | 21.11° C | 59% | 1008 hPa | 0 mm | - | 46 W/m² | - |
| 1778021329 | 21.11° C | 58% | 1008 hPa | 0 mm | - | 43 W/m² | - |
| 1778021027 | 21.11° C | 58% | 1008.1 hPa | 0 mm | - | 33 W/m² | - |
| 1778020724 | 21.11° C | 58% | 1008.2 hPa | 0 mm | - | 58 W/m² | - |
| 1778020421 | 21.11° C | 59% | 1008.2 hPa | 0 mm | - | 51 W/m² | - |
| 1778020117 | 21.11° C | 59% | 1008.1 hPa | 0 mm | - | 51 W/m² | - |
| 1778019813 | 21.11° C | 59% | 1007.9 hPa | 0 mm | - | 47 W/m² | - |
| 1778019510 | 21.11° C | 59% | 1008 hPa | 0 mm | - | 48 W/m² | - |
* Rain latest hour (hover to see other rain measurements)
** Current wind speed in m/s (hover to see current wind gust speed)